Simultaneous Nadir Overpasses (SNOs) Predictions

Prediction of SNOs near equator between AQUA and NPP Satellite Orbit:

Table of predicted SNOs near equator for the next 14.0 days since TLE Epoch: 2/8/2014
Index Date (AQUA) Time (AQUA) AQUA Lat,Lon Date (NPP) Time (NPP) NPP Lat,Lon Distance(km) Time Diff (sec)
1 02/09/2014 06:21:14 29.94, 103.94 02/09/2014 06:11:14 29.97, 104.13 19.39 600
2 02/09/2014 07:08:27 -22.14, -86.47 02/09/2014 06:59:41 -22.14, -86.48 0.86 526
3 02/09/2014 07:51:13 -2.29, 86.52 02/09/2014 07:43:34 -2.31, 86.49 4.04 459
4 02/09/2014 08:39:20 6.84,-104.85 02/09/2014 08:32:56 6.92,-105.14 33.20 384
5 02/09/2014 09:27:35 -11.42, 63.76 02/09/2014 09:22:27 -11.53, 63.21 61.74 308
6 02/09/2014 10:15:43 15.91,-127.59 02/09/2014 10:11:50 16.08,-128.40 88.66 233
7 02/11/2014 22:37:47 29.99,-140.21 02/11/2014 22:28:12 30.02,-140.11 10.49 575
8 02/11/2014 23:22:40 -13.75, 31.31 02/11/2014 23:14:15 -13.75, 31.32 0.63 505
9 02/12/2014 00:07:21 -3.75,-157.30 02/12/2014 00:00:06 -3.79,-157.41 12.32 435
10 02/12/2014 00:55:29 8.24, 11.32 02/12/2014 00:49:29 8.33, 10.95 41.43 360
11 02/12/2014 01:43:43 -12.88, 179.95 02/12/2014 01:38:59 -13.01, 179.32 69.48 284
12 02/12/2014 02:31:51 17.37, -11.39 02/12/2014 02:28:22 17.55, -12.27 95.82 209
13 02/14/2014 14:54:09 29.38, -24.18 02/14/2014 14:44:59 29.38, -24.16 2.33 550
14 02/14/2014 15:36:54 -5.42, 149.00 02/14/2014 15:28:51 -5.41, 149.00 0.97 483
15 02/14/2014 16:23:28 -5.27, -41.10 02/14/2014 16:16:38 -5.32, -41.29 20.96 410
16 02/14/2014 17:11:36 9.76, 127.52 02/14/2014 17:06:01 9.86, 127.08 49.81 335
17 02/14/2014 17:59:50 -14.39, -63.84 02/14/2014 17:55:31 -14.53, -64.55 77.41 259
18 02/17/2014 06:21:20 -29.99, -76.09 02/17/2014 06:11:20 -30.07, -75.87 22.70 600
19 02/17/2014 07:08:58 23.24, 93.23 02/17/2014 07:00:12 23.24, 93.23 0.87 526
20 02/17/2014 07:51:39 0.99, -93.76 02/17/2014 07:44:00 0.99, -93.78 2.26 459
21 02/17/2014 08:39:33 -6.84, 75.11 02/17/2014 08:33:09 -6.90, 74.84 29.91 384
22 02/17/2014 09:27:41 11.33,-116.26 02/17/2014 09:22:32 11.44,-116.78 58.41 309
23 02/17/2014 10:15:55 -15.96, 52.39 02/17/2014 10:12:02 -16.11, 51.60 85.47 233
24 02/19/2014 22:37:50 -29.99, 39.79 02/19/2014 22:28:17 -30.03, 39.92 12.44 573
25 02/19/2014 23:23:13 15.10,-149.01 02/19/2014 23:14:51 15.10,-149.01 0.88 502
26 02/20/2014 00:07:22 3.83, 22.72 02/20/2014 00:00:09 3.85, 22.64 9.96 433
27 02/20/2014 00:55:36 -8.47,-168.66 02/20/2014 00:49:39 -8.53,-169.01 39.18 357
28 02/20/2014 01:43:44 12.96, -0.02 02/20/2014 01:39:02 13.08, -0.63 67.20 282
29 02/20/2014 02:31:58 -17.59, 168.63 02/20/2014 02:28:32 -17.74, 167.77 93.63 206
30 02/22/2014 14:54:16 -29.87, 155.71 02/22/2014 14:45:11 -29.87, 155.74 2.48 545
31 02/22/2014 15:37:26 6.95, -31.35 02/22/2014 15:29:29 6.95, -31.35 0.39 477
32 02/22/2014 16:23:21 5.58, 138.98 02/22/2014 16:16:36 5.60, 138.81 19.68 405
